N8IFU Weather Reports


Display with metric or nautical units.
time (UTC)temp
F
wind
direction
speed
MPH
gust
MPH
rain 1hr
in
rain 24hr
in
rain mn
in
humidity
%
barometer
mb
20260502210047 46 261 6.0 12.0 0.00 0.00 0.00 46 1015.6
20260502204551 47 255 5.0 10.0 0.00 0.00 0.00 46 1015.6
20260502203055 46 244 4.0 12.0 0.00 0.00 0.00 47 1015.7
20260502201549 46 303 3.0 8.0 0.00 0.00 0.00 48 1015.8
20260502200047 45 278 3.0 9.0 0.00 0.00 0.00 47 1016.0
20260502194540 46 236 3.0 6.0 0.00 0.00 0.00 46 1016.1
20260502193048 46 245 3.0 11.0 0.00 0.00 0.00 47 1016.2
20260502191551 46 259 4.0 10.0 0.00 0.00 0.00 45 1016.4
20260502190051 46 267 5.0 10.0 0.00 0.00 0.00 44 1016.3
20260502184547 45 268 4.0 8.0 0.00 0.00 0.00 46 1016.5
20260502183052 45 240 3.0 7.0 0.00 0.00 0.00 46 1016.5
20260502181551 46 256 3.0 9.0 0.00 0.00 0.00 47 1016.7
20260502163056 44 272 4.0 9.0 0.00 0.00 0.00 49 1017.3
20260502161553 44 239 4.0 7.0 0.00 0.00 0.00 45 1017.2
20260502151547 42 267 4.0 10.0 0.00 0.00 0.00 51 1017.3
20260502123041 36 252 1.0 4.0 0.00 0.01 0.00 82 1017.3
20260502121549 35 0 1.0 4.0 0.00 0.01 0.00 85 1017.2
20260502114555 34 263 1.0 2.0 0.00 0.01 0.00 91 1017.1
20260502113045 33 283 0.0 2.0 0.00 0.01 0.00 92 1017.0
20260502111559 31 257 0.0 1.0 0.00 0.01 0.00 92 1016.8
20260502110050 29 0 0.0 0.0 0.00 0.01 0.00 88 1016.7
20260502104552 30 0 0.0 0.0 0.00 0.01 0.00 88 1016.6
20260502103046 31 0 0.0 0.0 0.00 0.01 0.00 87 1016.6
20260502101550 32 0 0.0 0.0 0.00 0.01 0.00 87 1016.6
20260502100104 33 0 0.0 0.0 0.00 0.01 0.00 86 1016.4
20260502070046 36 102 0.0 3.0 0.00 0.01 0.00 83 1015.9
20260502064600 36 108 0.0 2.0 0.00 0.01 0.00 82 1016.0
20260502063042 37 107 0.0 1.0 0.00 0.01 0.00 82 1016.2
20260502061547 37 0 0.0 0.0 0.00 0.01 0.00 81 1016.3
20260502060053 37 0 0.0 1.0 0.00 0.01 0.00 80 1016.4
20260502054547 37 0 0.0 1.0 0.00 0.01 0.00 80 1016.4
20260502053044 37 0 0.0 1.0 0.00 0.01 0.00 79 1016.4
20260502051600 37 124 0.0 2.0 0.00 0.01 0.00 78 1016.4
20260502050044 37 109 0.0 2.0 0.00 0.01 0.00 77 1016.4
20260502044541 38 113 0.0 2.0 0.00 0.01 0.00 77 1016.2
20260502043050 38 106 1.0 3.0 0.00 0.01 0.00 77 1016.0
20260502041547 38 108 1.0 5.0 0.00 0.01 0.00 77 1016.1
20260502040045 38 108 1.0 4.0 0.00 0.01 0.00 76 1015.9
20260502034547 39 100 1.0 6.0 0.00 0.01 0.01 73 1015.9
20260502033050 41 265 1.0 4.0 0.00 0.01 0.01 69 1015.8
20260502031602 41 44 1.0 4.0 0.00 0.01 0.01 66 1015.5
20260502030049 42 285 1.0 3.0 0.00 0.01 0.01 65 1015.6
20260502024554 42 302 2.0 6.0 0.00 0.01 0.01 64 1015.6
20260502023044 42 270 2.0 7.0 0.00 0.01 0.01 65 1015.6
20260502021552 42 270 1.0 6.0 0.00 0.01 0.01 66 1015.5
20260502020103 42 236 0.0 7.0 0.00 0.01 0.01 65 1015.5
20260502014547 42 250 1.0 4.0 0.00 0.01 0.01 67 1015.3
20260502013054 42 245 0.0 4.0 0.00 0.01 0.01 66 1015.2
20260502011551 42 250 0.0 4.0 0.00 0.01 0.01 65 1015.1
20260502010049 43 296 0.0 3.0 0.00 0.01 0.01 65 1014.9
20260502004547 43 280 2.0 7.0 0.00 0.01 0.01 63 1014.9
20260502003045 43 238 1.0 5.0 0.00 0.01 0.01 65 1014.9
20260502001545 43 264 1.0 5.0 0.00 0.01 0.01 65 1014.7
20260502000051 43 262 3.0 6.0 0.00 0.01 0.01 66 1014.5
20260501234557 44 0 2.0 5.0 0.00 0.01 0.01 67 1014.5
20260501233104 44 266 1.0 5.0 0.00 0.01 0.01 65 1014.5
20260501231557 44 262 1.0 5.0 0.00 0.01 0.01 65 1014.3
20260501230049 45 257 2.0 6.0 0.00 0.01 0.01 65 1014.3
20260501224557 45 285 3.0 7.0 0.00 0.01 0.01 66 1014.4
20260501223055 45 256 4.0 8.0 0.00 0.01 0.01 62 1014.4
20260501221550 45 243 2.0 6.0 0.00 0.01 0.01 62 1014.2
20260501220052 45 238 1.0 9.0 0.00 0.01 0.01 62 1014.0
20260501214558 47 288 3.0 6.0 0.00 0.01 0.01 57 1013.8
20260501213051 47 262 2.0 6.0 0.00 0.01 0.01 57 1013.7
20260501211543 47 245 2.0 6.0 0.00 0.01 0.01 56 1013.5